This is the latest recevied weather packets stored in our database for station/object WA6OOO. If no packets are shown the sender has not sent any weather packets the latest 10 day(s).
| Time | Temp. | Humidity | Pressure | Rain* | Wind** | Luminosity | Snow |
|---|---|---|---|---|---|---|---|
| 1787989791 | 21.67° C | 79% | 1014.9 hPa | 0 mm | - | 0 W/m² | - |
| 1787989488 | 22.22° C | 80% | 1014.5 hPa | 0 mm | - | 0 W/m² | - |
| 1787989186 | 21.67° C | 82% | 1014.5 hPa | 0 mm | - | 0 W/m² | - |
| 1787988884 | 22.22° C | 82% | 1014.7 hPa | 0 mm | - | 0 W/m² | - |
| 1787988580 | 22.78° C | 82% | 1014.9 hPa | 0 mm | - | 0 W/m² | - |
| 1787988276 | 22.78° C | 82% | 1014.8 hPa | 0 mm | - | 0 W/m² | - |
| 1787987971 | 22.22° C | 84% | 1014.6 hPa | 0 mm | - | 0 W/m² | - |
| 1787987667 | 21.67° C | 85% | 1014.6 hPa | 0 mm | - | 0 W/m² | - |
| 1787987366 | 21.67° C | 86% | 1014.3 hPa | 0 mm | - | 0 W/m² | - |
| 1787987063 | 21.67° C | 85% | 1014.5 hPa | 0 mm | - | 0 W/m² | - |
| 1787986761 | 22.22° C | 84% | 1014.3 hPa | 0 mm | - | 0 W/m² | - |
| 1787986461 | 22.22° C | 82% | 1014.2 hPa | 0 mm | - | 0 W/m² | - |
| 1787986155 | 22.22° C | 81% | 1014 hPa | 0 mm | - | 0 W/m² | - |
| 1787985850 | 22.22° C | 81% | 1014.5 hPa | 0 mm | - | 0 W/m² | - |
| 1787985550 | 22.22° C | 82% | 1014 hPa | 0 mm | - | 0 W/m² | - |
| 1787985244 | 22.22° C | 79% | 1014.3 hPa | 0 mm | - | 0 W/m² | - |
| 1787984943 | 22.22° C | 80% | 1014.2 hPa | 0 mm | - | 0 W/m² | - |
| 1787984639 | 22.22° C | 82% | 1014.3 hPa | 0 mm | - | 0 W/m² | - |
| 1787984334 | 22.22° C | 83% | 1014.2 hPa | 0 mm | - | 0 W/m² | - |
| 1787984032 | 22.22° C | 81% | 1014.2 hPa | 0 mm | - | 0 W/m² | - |
| 1787983728 | 22.22° C | 81% | 1014.3 hPa | 0 mm | - | 0 W/m² | - |
| 1787983421 | 22.22° C | 81% | 1014.3 hPa | 0 mm | - | 0 W/m² | - |
| 1787983117 | 22.22° C | 83% | 1014.5 hPa | 0 mm | - | 0 W/m² | - |
| 1787982813 | 22.22° C | 83% | 1014.3 hPa | 0 mm | - | 0 W/m² | - |
| 1787982513 | 22.78° C | 82% | 1014.3 hPa | 0 mm | - | 0 W/m² | - |
* Rain latest hour (hover to see other rain measurements)
** Current wind speed in m/s (hover to see current wind gust speed)